GW3819 Weather Reports


time (UTC)temp
C
wind
direction
speed
KPH
gust
KPH
rain 1hr
cm
rain 24hr
cm
rain mn
cm
humidity
%
barometer
mb
20260507133042 10 19 8.0 14.5 0.00 0.03 0.00 53 1013.0
20260507131551 10 336 3.2 12.9 0.00 0.03 0.00 50 1013.1
20260507130044 10 333 3.2 6.4 0.00 0.03 0.00 49 1013.1
20260507124540 10 269 4.8 16.1 0.00 0.03 0.00 52 1013.0
20260507123042 10 332 6.4 16.1 0.00 0.03 0.00 50 1013.1
20260507121542 10 256 6.4 19.3 0.00 0.03 0.00 52 1013.0
20260507120037 8 273 3.2 12.9 0.00 0.03 0.00 56 1013.0
20260507114536 9 345 6.4 16.1 0.00 0.03 0.00 52 1012.9
20260507113035 9 300 1.6 14.5 0.00 0.03 0.00 50 1012.9
20260507111531 8 59 4.8 12.9 0.00 0.03 0.00 58 1012.8
20260507110028 7 190 4.8 12.9 0.00 0.03 0.00 60 1013.0
20260507104528 7 276 8.0 17.7 0.00 0.03 0.00 63 1012.9
20260507103027 7 227 4.8 19.3 0.00 0.03 0.00 62 1013.0
20260507101525 7 351 4.8 8.0 0.00 0.03 0.00 57 1013.0
20260507100029 7 286 6.4 14.5 0.00 0.03 0.00 58 1013.0
20260507094521 6 235 1.6 12.9 0.00 0.03 0.00 59 1013.0
20260507093018 6 249 8.0 16.1 0.00 0.03 0.00 65 1013.0
20260507091519 5 213 8.0 14.5 0.00 0.03 0.00 68 1013.0
20260507090014 5 313 8.0 16.1 0.00 0.03 0.00 66 1013.0
20260507084515 5 202 16.1 25.7 0.00 0.03 0.00 72 1012.8
20260507083011 5 244 11.3 27.4 0.00 0.03 0.00 72 1012.7
20260507081507 5 240 6.4 17.7 0.00 0.03 0.00 70 1012.5
20260507080003 5 313 4.8 16.1 0.00 0.03 0.00 71 1012.4
20260507074600 4 204 14.5 22.5 0.00 0.03 0.00 72 1012.4
20260507073056 3 211 14.5 20.9 0.00 0.03 0.00 78 1012.3
20260507071553 3 206 14.5 20.9 0.00 0.03 0.00 77 1012.3
20260507070101 3 197 9.7 14.5 0.00 0.03 0.00 82 1012.0
20260507064621 3 186 11.3 16.1 0.00 0.03 0.00 81 1011.9
20260507063052 3 150 8.0 19.3 0.00 0.03 0.00 82 1012.0
20260507061547 2 197 8.0 16.1 0.00 0.03 0.00 82 1012.0
20260507060104 2 139 8.0 16.1 0.00 0.03 0.00 83 1011.8
20260507054547 2 202 14.5 20.9 0.00 0.03 0.00 84 1011.7
20260507053041 2 180 14.5 19.3 0.00 0.03 0.00 84 1011.6
20260507051545 2 209 8.0 16.1 0.00 0.03 0.00 84 1011.3
20260507050041 2 202 9.7 14.5 0.00 0.03 0.00 84 1011.1
20260507044529 2 207 8.0 11.3 0.00 0.03 0.00 84 1011.0
20260507043026 2 191 0.0 3.2 0.00 0.03 0.00 84 1010.7
20260507041527 2 192 0.0 4.8 0.00 0.03 0.00 84 1010.6
20260507040021 2 201 3.2 12.9 0.00 0.03 0.00 83 1010.5
20260507034519 2 153 6.4 12.9 0.00 0.03 0.00 83 1010.5
20260507033020 2 165 4.8 8.0 0.00 0.03 0.00 84 1010.3
20260507031515 2 223 0.0 4.8 0.00 0.03 0.00 84 1010.3
20260507030024 2 93 0.0 0.0 0.00 0.03 0.00 84 1010.3
20260507024517 2 93 0.0 0.0 0.00 0.03 0.00 83 1010.1
20260507023011 2 157 0.0 0.0 0.00 0.03 0.00 83 1010.2
20260507021510 2 157 0.0 4.8 0.00 0.03 0.00 82 1010.1
20260507020009 2 128 3.2 9.7 0.00 0.03 0.00 82 1010.1
20260507014512 2 202 1.6 11.3 0.00 0.03 0.00 82 1009.9
20260507013011 2 186 3.2 9.7 0.00 0.03 0.00 82 1009.7
20260507011506 2 168 6.4 11.3 0.00 0.03 0.00 82 1009.7
20260507010007 2 170 3.2 6.4 0.00 0.03 0.00 82 1009.6
20260507004503 2 165 4.8 6.4 0.00 0.03 0.00 82 1009.7
20260507003001 2 223 0.0 3.2 0.00 0.03 0.00 82 1009.4
20260507001500 2 158 3.2 6.4 0.00 0.03 0.00 81 1009.3
20260507000059 2 160 4.8 12.9 0.00 0.03 0.00 82 1009.5
20260506234600 2 167 1.6 4.8 0.00 0.03 0.00 82 1009.7
20260506233059 3 167 1.6 9.7 0.00 0.03 0.00 81 1009.7
20260506231607 3 171 1.6 8.0 0.00 0.03 0.00 78 1009.6
20260506230106 3 148 0.0 3.2 0.00 0.03 0.00 78 1009.6
20260506224552 3 131 6.4 14.5 0.00 0.03 0.00 76 1009.5
20260506223050 3 130 8.0 24.1 0.00 0.03 0.00 78 1009.4
20260506221608 3 170 4.8 16.1 0.00 0.03 0.00 77 1009.3
20260506220055 3 121 4.8 14.5 0.00 0.03 0.00 77 1009.2
20260506214547 3 121 8.0 19.3 0.00 0.03 0.03 77 1009.0
20260506213058 3 125 9.7 19.3 0.00 0.03 0.03 77 1009.1
20260506211541 3 164 14.5 25.7 0.03 0.03 0.03 79 1009.0
20260506210046 3 94 14.5 25.7 0.03 0.03 0.03 81 1009.0
20260506204538 3 238 3.2 16.1 0.03 0.03 0.03 79 1009.1
20260506203035 3 133 6.4 14.5 0.03 0.03 0.03 77 1009.1
20260506201539 4 219 11.3 24.1 0.00 0.00 0.00 72 1009.3
20260506200030 5 204 16.1 30.6 0.00 0.00 0.00 70 1008.9
20260506194528 4 209 4.8 11.3 0.00 0.00 0.00 72 1008.7
20260506193026 5 192 4.8 25.7 0.00 0.00 0.00 68 1008.3
20260506191524 5 244 11.3 27.4 0.00 0.00 0.00 68 1008.1
20260506190028 5 175 16.1 25.7 0.00 0.00 0.00 67 1008.0
20260506184524 5 186 9.7 16.1 0.00 0.00 0.00 67 1007.6
20260506183020 5 223 14.5 25.7 0.00 0.00 0.00 61 1007.5
20260506181520 6 219 22.5 45.1 0.00 0.00 0.00 67 1007.0
20260506180024 6 207 16.1 35.4 0.00 0.00 0.00 68 1006.7
20260506174524 6 187 16.1 29.0 0.00 0.00 0.00 66 1006.3
20260506173018 7 196 16.1 27.4 0.00 0.00 0.00 63 1005.9
20260506171530 7 194 17.7 29.0 0.00 0.00 0.00 63 1005.6
20260506170016 8 171 14.5 25.7 0.00 0.00 0.00 55 1005.4
20260506164520 8 179 9.7 22.5 0.00 0.00 0.00 53 1005.2
20260506163017 8 18 11.3 22.5 0.00 0.00 0.00 52 1004.9
20260506161516 9 202 3.2 16.1 0.00 0.00 0.00 52 1004.7
20260506160016 10 325 6.4 19.3 0.00 0.00 0.00 53 1004.5
20260506154514 10 267 14.5 32.2 0.00 0.00 0.00 49 1004.8
20260506153013 10 235 14.5 43.5 0.00 0.00 0.00 48 1004.8
20260506151516 11 282 8.0 35.4 0.00 0.00 0.00 48 1004.8
20260506150012 10 303 9.7 24.1 0.00 0.00 0.00 48 1004.8
20260506144509 10 208 8.0 24.1 0.00 0.00 0.00 51 1004.9
20260506143009 10 41 9.7 24.1 0.00 0.00 0.00 55 1005.1
20260506141507 11 211 8.0 27.4 0.00 0.00 0.00 55 1005.2
20260506140013 9 340 8.0 19.3 0.00 0.00 0.00 59 1005.1
20260506134505 8 169 16.1 25.7 0.00 0.00 0.00 61 1005.5